McDowell Caryn Gordon, officer (GC of CYTK - Past Performance as of 12/17/17. Total 61 Records. Link to Thomson Financial
Buy(P) /
Sell(S)
P/S date Filed Date Company Symbol Insider Relationship Share Amt. Unit Price Total Proceeds Shares Owned Return(1m) Details
S 2017-11-02 2017-11-06 20:19:35 CYTOKINETICS INC CYTK McDowell Caryn Gordon officer (GC & Chief Compliance Officer) 2,460 $12.90 $31,734.00 15,522 N/A view
S 2017-11-02 2017-11-06 20:19:35 CYTOKINETICS INC CYTK McDowell Caryn Gordon officer (GC & Chief Compliance Officer) 1,800 $13.00 $23,400.00 14,375 N/A view
S 2017-10-06 2017-10-10 19:20:50 CYTOKINETICS INC CYTK McDowell Caryn Gordon officer (GC & Chief Compliance Officer) 2,000 $15.20 $30,400.00 22,726 N/A view
S 2017-10-06 2017-10-10 19:20:50 CYTOKINETICS INC CYTK McDowell Caryn Gordon officer (GC & Chief Compliance Officer) 500 $15.25 $7,625.00 23,733 N/A view
S 2017-10-06 2017-10-10 19:20:50 CYTOKINETICS INC CYTK McDowell Caryn Gordon officer (GC & Chief Compliance Officer) 383 $15.27 $5,850.33 27,069 N/A view
S 2017-10-06 2017-10-10 19:20:50 CYTOKINETICS INC CYTK McDowell Caryn Gordon officer (GC & Chief Compliance Officer) 1,094 $15.30 $16,738.20 25,975 N/A view
S 2017-10-06 2017-10-10 19:20:50 CYTOKINETICS INC CYTK McDowell Caryn Gordon officer (GC & Chief Compliance Officer) 200 $15.32 $3,065.00 25,775 N/A view
S 2017-10-06 2017-10-10 19:20:50 CYTOKINETICS INC CYTK McDowell Caryn Gordon officer (GC & Chief Compliance Officer) 1,106 $15.35 $16,977.10 24,669 N/A view
S 2017-10-06 2017-10-10 19:20:50 CYTOKINETICS INC CYTK McDowell Caryn Gordon officer (GC & Chief Compliance Officer) 600 $15.40 $9,240.00 24,069 N/A view
S 2017-10-06 2017-10-10 19:20:50 CYTOKINETICS INC CYTK McDowell Caryn Gordon officer (GC & Chief Compliance Officer) 200 $15.50 $3,100.00 23,869 N/A view
S 2017-10-06 2017-10-10 19:20:50 CYTOKINETICS INC CYTK McDowell Caryn Gordon officer (GC & Chief Compliance Officer) 700 $15.55 $10,885.00 23,169 N/A view
S 2017-10-06 2017-10-10 19:20:50 CYTOKINETICS INC CYTK McDowell Caryn Gordon officer (GC & Chief Compliance Officer) 400 $15.57 $6,230.00 22,769 N/A view
S 2017-10-06 2017-10-10 19:20:50 CYTOKINETICS INC CYTK McDowell Caryn Gordon officer (GC & Chief Compliance Officer) 1,100 $15.60 $17,160.00 21,669 N/A view
S 2017-10-06 2017-10-10 19:20:50 CYTOKINETICS INC CYTK McDowell Caryn Gordon officer (GC & Chief Compliance Officer) 200 $15.62 $3,125.00 21,469 N/A view
S 2017-10-06 2017-10-10 19:20:50 CYTOKINETICS INC CYTK McDowell Caryn Gordon officer (GC & Chief Compliance Officer) 700 $15.65 $10,955.00 20,769 N/A view
S 2017-10-06 2017-10-10 19:20:50 CYTOKINETICS INC CYTK McDowell Caryn Gordon officer (GC & Chief Compliance Officer) 800 $15.68 $12,540.00 19,969 N/A view
S 2017-10-06 2017-10-10 19:20:50 CYTOKINETICS INC CYTK McDowell Caryn Gordon officer (GC & Chief Compliance Officer) 1,100 $15.70 $17,270.00 18,869 N/A view
S 2017-10-06 2017-10-10 19:20:50 CYTOKINETICS INC CYTK McDowell Caryn Gordon officer (GC & Chief Compliance Officer) 100 $15.73 $1,572.50 18,769 N/A view
S 2017-10-06 2017-10-10 19:20:50 CYTOKINETICS INC CYTK McDowell Caryn Gordon officer (GC & Chief Compliance Officer) 200 $15.75 $3,150.00 18,569 N/A view
S 2017-10-06 2017-10-10 19:20:50 CYTOKINETICS INC CYTK McDowell Caryn Gordon officer (GC & Chief Compliance Officer) 200 $15.95 $3,190.00 18,369 N/A view
S 2017-10-06 2017-10-10 19:20:50 CYTOKINETICS INC CYTK McDowell Caryn Gordon officer (GC & Chief Compliance Officer) 1,598 $15.70 $25,088.60 16,771 N/A view
S 2017-09-06 2017-09-08 16:48:46 CYTOKINETICS INC CYTK McDowell Caryn Gordon officer (GC & Chief Compliance Officer) 100 $15.00 $1,500.00 18,369 N/A view
S 2017-09-06 2017-09-08 16:48:46 CYTOKINETICS INC CYTK McDowell Caryn Gordon officer (GC & Chief Compliance Officer) 200 $14.10 $2,820.00 19,601 N/A view
S 2017-09-06 2017-09-08 16:48:46 CYTOKINETICS INC CYTK McDowell Caryn Gordon officer (GC & Chief Compliance Officer) 200 $14.15 $2,830.00 22,468 N/A view
S 2017-09-06 2017-09-08 16:48:46 CYTOKINETICS INC CYTK McDowell Caryn Gordon officer (GC & Chief Compliance Officer) 898 $14.20 $12,751.60 27,302 N/A view
S 2017-09-06 2017-09-08 16:48:46 CYTOKINETICS INC CYTK McDowell Caryn Gordon officer (GC & Chief Compliance Officer) 400 $14.25 $5,700.00 26,902 N/A view
S 2017-09-06 2017-09-08 16:48:46 CYTOKINETICS INC CYTK McDowell Caryn Gordon officer (GC & Chief Compliance Officer) 100 $14.27 $1,427.50 26,802 N/A view
S 2017-09-06 2017-09-08 16:48:46 CYTOKINETICS INC CYTK McDowell Caryn Gordon officer (GC & Chief Compliance Officer) 302 $14.30 $4,318.60 26,500 N/A view
S 2017-09-06 2017-09-08 16:48:46 CYTOKINETICS INC CYTK McDowell Caryn Gordon officer (GC & Chief Compliance Officer) 200 $14.35 $2,870.00 26,300 N/A view
S 2017-09-06 2017-09-08 16:48:46 CYTOKINETICS INC CYTK McDowell Caryn Gordon officer (GC & Chief Compliance Officer) 200 $14.38 $2,875.00 26,100 N/A view
S 2017-09-06 2017-09-08 16:48:46 CYTOKINETICS INC CYTK McDowell Caryn Gordon officer (GC & Chief Compliance Officer) 400 $14.40 $5,760.00 25,700 N/A view
S 2017-09-06 2017-09-08 16:48:46 CYTOKINETICS INC CYTK McDowell Caryn Gordon officer (GC & Chief Compliance Officer) 600 $14.45 $8,670.00 25,100 N/A view
S 2017-09-06 2017-09-08 16:48:46 CYTOKINETICS INC CYTK McDowell Caryn Gordon officer (GC & Chief Compliance Officer) 200 $14.48 $2,895.00 24,900 N/A view
S 2017-09-06 2017-09-08 16:48:46 CYTOKINETICS INC CYTK McDowell Caryn Gordon officer (GC & Chief Compliance Officer) 200 $14.50 $2,900.00 24,700 N/A view
S 2017-09-06 2017-09-08 16:48:46 CYTOKINETICS INC CYTK McDowell Caryn Gordon officer (GC & Chief Compliance Officer) 200 $14.52 $2,905.00 24,500 N/A view
S 2017-09-06 2017-09-08 16:48:46 CYTOKINETICS INC CYTK McDowell Caryn Gordon officer (GC & Chief Compliance Officer) 200 $14.57 $2,915.00 24,300 N/A view
S 2017-09-06 2017-09-08 16:48:46 CYTOKINETICS INC CYTK McDowell Caryn Gordon officer (GC & Chief Compliance Officer) 700 $14.60 $10,220.00 23,600 N/A view
S 2017-09-06 2017-09-08 16:48:46 CYTOKINETICS INC CYTK McDowell Caryn Gordon officer (GC & Chief Compliance Officer) 300 $14.62 $4,387.50 23,300 N/A view
S 2017-09-06 2017-09-08 16:48:46 CYTOKINETICS INC CYTK McDowell Caryn Gordon officer (GC & Chief Compliance Officer) 200 $14.65 $2,930.00 23,100 N/A view
S 2017-09-06 2017-09-08 16:48:46 CYTOKINETICS INC CYTK McDowell Caryn Gordon officer (GC & Chief Compliance Officer) 500 $14.70 $7,350.00 22,600 N/A view
S 2017-09-06 2017-09-08 16:48:46 CYTOKINETICS INC CYTK McDowell Caryn Gordon officer (GC & Chief Compliance Officer) 200 $14.73 $2,945.00 22,400 N/A view
S 2017-09-06 2017-09-08 16:48:46 CYTOKINETICS INC CYTK McDowell Caryn Gordon officer (GC & Chief Compliance Officer) 600 $14.75 $8,850.00 21,800 N/A view
S 2017-09-06 2017-09-08 16:48:46 CYTOKINETICS INC CYTK McDowell Caryn Gordon officer (GC & Chief Compliance Officer) 400 $14.77 $5,910.00 21,400 N/A view
S 2017-09-06 2017-09-08 16:48:46 CYTOKINETICS INC CYTK McDowell Caryn Gordon officer (GC & Chief Compliance Officer) 400 $14.80 $5,920.00 21,000 N/A view
S 2017-09-06 2017-09-08 16:48:46 CYTOKINETICS INC CYTK McDowell Caryn Gordon officer (GC & Chief Compliance Officer) 100 $14.82 $1,482.50 20,900 N/A view
S 2017-09-06 2017-09-08 16:48:46 CYTOKINETICS INC CYTK McDowell Caryn Gordon officer (GC & Chief Compliance Officer) 724 $14.85 $10,751.40 20,176 N/A view
S 2017-09-06 2017-09-08 16:48:46 CYTOKINETICS INC CYTK McDowell Caryn Gordon officer (GC & Chief Compliance Officer) 600 $14.90 $8,940.00 19,576 N/A view
S 2017-09-06 2017-09-08 16:48:46 CYTOKINETICS INC CYTK McDowell Caryn Gordon officer (GC & Chief Compliance Officer) 400 $14.93 $5,970.00 19,176 N/A view
S 2017-09-06 2017-09-08 16:48:46 CYTOKINETICS INC CYTK McDowell Caryn Gordon officer (GC & Chief Compliance Officer) 707 $14.95 $10,569.70 18,469 N/A view
S 2017-08-08 2017-08-10 19:57:15 CYTOKINETICS INC CYTK McDowell Caryn Gordon officer (GC & Chief Compliance Officer) 300 $12.35 $3,705.00 21,270 N/A view
S 2017-08-08 2017-08-10 19:57:15 CYTOKINETICS INC CYTK McDowell Caryn Gordon officer (GC & Chief Compliance Officer) 500 $12.38 $6,187.50 23,506 N/A view
S 2017-08-08 2017-08-10 19:57:15 CYTOKINETICS INC CYTK McDowell Caryn Gordon officer (GC & Chief Compliance Officer) 3,200 $12.40 $39,680.00 25,717 N/A view
S 2017-08-08 2017-08-10 19:57:15 CYTOKINETICS INC CYTK McDowell Caryn Gordon officer (GC & Chief Compliance Officer) 800 $12.43 $9,940.00 24,917 N/A view
S 2017-08-08 2017-08-10 19:57:15 CYTOKINETICS INC CYTK McDowell Caryn Gordon officer (GC & Chief Compliance Officer) 2,300 $12.45 $28,635.00 22,617 N/A view
S 2017-08-08 2017-08-10 19:57:15 CYTOKINETICS INC CYTK McDowell Caryn Gordon officer (GC & Chief Compliance Officer) 200 $12.48 $2,495.00 22,417 N/A view
S 2017-08-08 2017-08-10 19:57:15 CYTOKINETICS INC CYTK McDowell Caryn Gordon officer (GC & Chief Compliance Officer) 300 $12.50 $3,750.00 22,117 N/A view
S 2017-08-08 2017-08-10 19:57:15 CYTOKINETICS INC CYTK McDowell Caryn Gordon officer (GC & Chief Compliance Officer) 700 $12.62 $8,837.50 21,417 N/A view
S 2017-08-08 2017-08-10 19:57:15 CYTOKINETICS INC CYTK McDowell Caryn Gordon officer (GC & Chief Compliance Officer) 500 $12.65 $6,325.00 20,917 N/A view
S 2017-08-08 2017-08-10 19:57:15 CYTOKINETICS INC CYTK McDowell Caryn Gordon officer (GC & Chief Compliance Officer) 538 $12.70 $6,832.60 20,379 N/A view
S 2017-08-08 2017-08-10 19:57:15 CYTOKINETICS INC CYTK McDowell Caryn Gordon officer (GC & Chief Compliance Officer) 200 $12.73 $2,545.00 20,179 N/A view
S 2017-08-08 2017-08-10 19:57:15 CYTOKINETICS INC CYTK McDowell Caryn Gordon officer (GC & Chief Compliance Officer) 1,810 $12.45 $22,534.50 18,369 N/A view
* Filed by insider as open market transaction, but marked as private transaction by insidercow's proprietary method